TimeCDT,TemperatureF,Dew PointF,Humidity,Sea Level PressureIn,VisibilityMPH,Wind Direction,Wind SpeedMPH,Gust SpeedMPH,PrecipitationIn,Events,Conditions,WindDirDegrees,DateUTC
12:15 AM,84.7,74.3,71,29.90,10.0,North,13.8,17.3,N/A,,Scattered Clouds,350,2013-09-02 05:15:00
12:35 AM,84.9,74.1,70,29.91,10.0,North,6.9,-,N/A,,Scattered Clouds,350,2013-09-02 05:35:00
12:55 AM,84.6,73.9,70,29.90,10.0,North,3.5,-,N/A,,Scattered Clouds,10,2013-09-02 05:55:00
1:15 AM,82.0,75.7,81,29.89,10.0,East,3.5,-,N/A,Rain,Light Rain,100,2013-09-02 06:15:00
1:35 AM,81.7,75.6,82,29.89,10.0,Calm,Calm,-,N/A,Thunderstorm,Mostly Cloudy,0,2013-09-02 06:35:00
1:55 AM,81.1,75.4,83,29.90,10.0,SSE,4.6,-,N/A,Thunderstorm,Scattered Clouds,150,2013-09-02 06:55:00
2:15 AM,80.6,75.7,85,29.91,10.0,Calm,Calm,-,N/A,,Scattered Clouds,0,2013-09-02 07:15:00
2:35 AM,79.9,75.2,86,29.90,10.0,East,4.6,-,N/A,,Scattered Clouds,100,2013-09-02 07:35:00
2:55 AM,79.5,73.8,82,29.90,10.0,NE,3.5,-,N/A,,Clear,50,2013-09-02 07:55:00
3:15 AM,77.7,73.2,86,29.90,10.0,ENE,3.5,-,N/A,,Clear,60,2013-09-02 08:15:00
3:35 AM,77.5,72.0,83,29.91,10.0,Calm,Calm,-,N/A,,Clear,0,2013-09-02 08:35:00
3:55 AM,77.0,72.9,87,29.91,10.0,Calm,Calm,-,N/A,,Clear,0,2013-09-02 08:55:00
4:15 AM,75.4,72.3,90,29.91,10.0,Calm,Calm,-,N/A,,Clear,0,2013-09-02 09:15:00
4:35 AM,76.8,71.6,84,29.91,10.0,Calm,Calm,-,N/A,,Clear,0,2013-09-02 09:35:00
4:55 AM,75.9,71.6,86,29.91,10.0,Calm,Calm,-,N/A,Thunderstorm,Clear,0,2013-09-02 09:55:00
5:15 AM,75.4,72.1,90,29.91,7.0,Calm,Calm,-,N/A,Thunderstorm,Clear,0,2013-09-02 10:15:00
5:35 AM,74.8,72.7,93,29.91,10.0,Calm,Calm,-,N/A,,Clear,0,2013-09-02 10:35:00
5:55 AM,74.3,72.3,94,29.92,10.0,Calm,Calm,-,N/A,,Clear,0,2013-09-02 10:55:00
6:15 AM,74.7,72.5,93,29.92,10.0,Calm,Calm,-,N/A,,Clear,0,2013-09-02 11:15:00
6:35 AM,75.2,73.4,94,29.93,10.0,Calm,Calm,-,N/A,,Clear,0,2013-09-02 11:35:00
7:55 AM,75.2,73.4,94,29.97,7.0,North,3.5,-,N/A,,Clear,10,2013-09-02 12:55:00
8:55 AM,78.8,75.2,89,29.97,10.0,North,4.6,-,N/A,,Clear,10,2013-09-02 13:55:00
9:55 AM,84.2,73.4,70,30.00,10.0,Calm,Calm,-,N/A,,Scattered Clouds,0,2013-09-02 14:55:00
10:55 AM,86.0,73.4,66,30.00,10.0,NNE,3.5,-,N/A,,Clear,20,2013-09-02 15:55:00
11:55 AM,89.6,73.4,59,30.00,10.0,North,5.8,-,N/A,,Scattered Clouds,360,2013-09-02 16:55:00
12:55 PM,91.4,73.4,55,29.98,10.0,North,4.6,-,N/A,,Clear,10,2013-09-02 17:55:00
1:55 PM,93.2,69.8,46,29.96,10.0,North,3.5,-,N/A,,Clear,10,2013-09-02 18:55:00
2:55 PM,95.0,68.0,41,29.94,10.0,NNE,8.1,-,N/A,,Clear,20,2013-09-02 19:55:00
4:55 PM,95.0,68.0,41,29.89,10.0,North,10.4,18.4,N/A,,Clear,360,2013-09-02 21:55:00
7:55 PM,86.0,64.4,48,29.90,10.0,NNE,10.4,-,N/A,,Clear,30,2013-09-03 00:55:00
11:35 PM,78.1,60.6,55,29.97,10.0,NE,9.2,-,N/A,,Clear,40,2013-09-03 04:35:00
11:55 PM,77.2,60.8,57,29.97,10.0,NE,9.2,-,N/A,,Clear,40,2013-09-03 04:55:00